Flag for U.S.A. Weather past 2 weeks in New Bedford, Massachusetts, U.S.A.

Now
74 °F

Clear.


Feels Like: 73 °F
Forecast: 64 / 83 °F
Wind: 10 mph from Southwest

Location: New Bedford Regional Airport

Current Time: Sep 3, 2014 at 3:21:21 AM

Latest Report: Sep 3, 2014 at 2:53 AM


Visibility: 10 mi

Pressure: 29.72 "Hg

Humidity: 85%

Dew point: 69 °F

Location of New BedfordLocation

Historic Weather in New Bedford — Graph

°F

New Bedford temperature yesterday

Maximum temperature yesterday: 87 °F (at 11:53 AM)
Minimum temperature yesterday: 70 °F (at 1:53 AM)
Average temperature yesterday: 77 °F

Past Weeks' High & Low Weather Summary

 TemperatureHumidityPressure
High87 °F (Sep 2, 11:53 AM)100% (Aug 20, 6:53 AM)30.31 "Hg (Aug 20, 6:53 AM)
Low47 °F (Aug 30, 4:53 AM)35% (Aug 28, 2:53 PM)29.72 "Hg (Sep 3, 1:53 AM)
Average68 °F77%30.03 "Hg
* Reported Aug 19 1:53 AM — Sep 3 1:53 AM, New Bedford, Weather by CustomWeather, © 2014

Note: Actual official high and low records may vary slightly from our data, if they occured in-between our weather recording intervals... More about our weather records

Advertising

New Bedford weather history for previous 24 hours

 ConditionsComfort  
Time TempWeatherWind HumidityBarometerVisibility
1:53 AM
Sep 3
75 °FClear.10 mph85%29.72 "Hg10 mi
12:53 AM73 °FClear.7 mph90%29.75 "Hg10 mi
11:53 PM
Sep 2
75 °FClear.13 mph85%29.77 "Hg10 mi
10:53 PM75 °FClear.10 mph88%29.78 "Hg10 mi
9:53 PM74 °FClear.8 mph91%29.79 "Hg10 mi
8:53 PM73 °FClear.7 mph94%29.80 "Hg9 mi
7:53 PM75 °FSunny.8 mph88%29.80 "Hg10 mi
6:53 PM79 °FSunny.16 mph74%29.81 "Hg10 mi
5:53 PM82 °FSunny.14 mph70%29.83 "Hg10 mi
4:53 PM84 °FSunny.12 mph65%29.82 "Hg10 mi
3:53 PM85 °FSunny.13 mph68%29.82 "Hg10 mi
2:53 PM84 °FSunny.17 mph70%29.84 "Hg10 mi
1:53 PM86 °FSunny.14 mph63%29.85 "Hg10 mi
12:53 PM87 °FSunny.14 mph63%29.87 "Hg10 mi
11:53 AM87 °FPassing clouds.9 mph65%29.89 "Hg10 mi
10:53 AM84 °FPassing clouds.9 mph72%29.92 "Hg10 mi
9:53 AM80 °FSunny.N/A79%29.93 "Hg10 mi
8:53 AM73 °FLow clouds.6 mph97%29.93 "Hg9 mi
7:53 AM71 °FFog.5 mph100%29.92 "Hg1 mi
6:53 AM71 °FFog.6 mph96%29.91 "Hg0 mi
5:53 AM70 °FFog.3 mph100%29.91 "Hg1 mi
4:53 AM70 °FFog.5 mph100%29.89 "Hg1 mi
3:53 AM70 °FFog.3 mph100%29.90 "Hg1 mi
Weather by CustomWeather, © 2014

See weather overviewHow to use our weather pages